Wind_Speed
43 44 46 46 46 46 46 45 44 43 44 45 44 43 43 43 43 43 42 42 43 43 41 41 39 38 38 38 38 37 36 35 34 33 32 32 32 32 31 30 29 28 28
42 43 45 46 46 46 47 47 46 45 44 44 45 44 44 44 44 45 45 45 43 43 42 42 40 39 38 38 38 38 38 36 36 35 34 33 32 32 32 31 30 29 29
41 43 44 45 45 45 47 46 47 46 46 46 45 45 45 44 43 44 44 45 45 44 43 43 42 41 39 38 38 39 39 38 37 37 36 35 34 33 32 31 30 29 30
38 41 43 44 45 46 47 47 47 47 47 47 47 46 46 45 45 44 43 44 45 44 43 44 44 43 42 42 40 40 40 39 38 37 37 37 35 35 33 32 31 31 31
37 39 42 44 45 46 48 47 47 47 47 46 47 46 46 47 46 46 45 45 44 44 44 43 44 45 44 44 43 41 41 41 40 38 38 37 36 35 34 34 33 32 32
38 38 41 43 44 46 47 48 48 48 47 47 47 47 47 48 47 47 47 46 46 45 45 44 44 44 45 45 44 43 42 42 41 41 40 38 37 36 36 35 34 34 33
40 39 39 42 43 44 46 47 48 49 48 48 48 47 47 48 49 49 48 47 47 46 45 45 44 43 44 45 45 45 44 43 42 42 41 41 40 38 39 38 37 35 34
41 41 40 41 42 43 45 46 48 48 48 48 48 47 48 48 48 49 50 49 48 48 47 47 45 45 45 45 46 46 46 46 44 43 43 42 42 41 41 41 40 39 37
37 39 39 40 41 43 44 45 47 48 48 48 48 48 47 48 48 48 48 49 49 49 48 49 49 47 47 47 46 46 46 46 45 45 44 43 43 43 43 43 42 41 40
34 35 37 36 38 42 43 44 46 47 48 48 49 48 49 48 49 49 49 48 48 49 49 49 50 49 48 47 47 47 48 48 48 47 46 45 43 43 43 43 43 43 42
33 34 36 36 37 40 40 42 44 46 47 47 48 49 49 49 49 49 50 49 50 51 51 49 49 49 50 49 49 49 49 48 48 47 47 47 45 44 44 44 44 44 44
32 33 35 36 37 39 41 42 44 45 45 45 46 48 49 50 50 49 49 51 51 51 51 51 50 49 50 51 50 49 49 48 48 48 47 47 46 45 45 46 45 45 44
32 34 35 37 38 39 40 42 43 44 45 45 46 48 49 49 49 50 50 50 50 51 52 53 53 52 51 50 51 50 50 49 48 48 47 47 47 47 47 46 46 46 46
31 33 35 37 39 40 41 42 43 44 46 47 47 48 49 49 49 50 51 50 50 51 51 52 52 51 50 50 50 50 49 49 49 49 48 48 48 48 49 48 47 47 47
31 33 34 37 39 42 43 43 43 44 46 47 48 49 49 49 49 49 49 50 50 50 51 50 49 49 50 50 50 51 51 50 50 50 50 49 49 49 49 49 49 48 48
30 31 33 36 37 40 42 43 43 43 45 46 47 48 49 49 49 48 49 49 49 49 49 49 48 48 49 50 51 51 51 52 51 51 51 51 51 50 50 50 51 50 50
28 30 32 34 37 39 41 42 43 44 44 45 46 46 47 47 47 47 47 47 47 48 49 48 48 48 48 49 50 51 51 51 51 52 52 52 53 53 52 52 52 51 50
27 29 31 33 35 37 38 39 41 43 44 44 44 45 45 46 46 46 46 46 46 47 47 47 47 47 48 48 49 49 49 49 50 51 52 52 53 53 53 53 52 52 51
28 28 30 32 34 36 37 38 39 40 41 42 43 43 44 44 44 44 45 46 46 46 46 46 45 46 47 48 48 48 48 48 49 49 51 52 53 53 53 53 53 53 52
28 28 29 31 32 33 34 35 36 38 39 40 41 41 42 42 42 42 43 44 45 45 44 44 44 44 45 45 46 47 48 48 48 48 49 49 50 51 52 53 54 54 52
28 28 28 29 30 31 32 33 34 36 37 38 39 40 40 41 41 41 41 41 42 43 43 43 44 44 45 46 46 46 47 47 47 47 47 48 49 50 51 52 53 53 53
26 27 27 27 28 28 30 31 32 33 34 36 37 38 38 39 40 39 40 40 40 41 42 43 43 44 45 46 47 47 47 47 46 46 46 47 48 48 49 50 51 52 52
26 26 26 26 27 27 28 29 30 31 33 33 34 36 37 37 36 37 39 39 39 40 40 41 42 43 43 44 45 46 47 47 47 47 47 47 47 48 48 49 50 50 50
25 25 25 25 26 26 27 27 28 29 30 31 32 33 35 36 37 37 36 37 38 39 39 39 40 41 42 43 43 44 45 45 46 47 47 47 47 48 48 48 48 48 48
24 24 24 24 24 25 25 26 26 27 28 29 30 32 33 35 35 36 36 36 36 37 37 38 39 39 40 41 42 42 43 43 44 44 45 45 46 46 47 47 47 47 47
25 24 24 23 23 24 24 25 25 26 26 27 28 30 31 33 34 34 34 35 36 35 35 35 36 37 38 38 39 40 40 41 41 42 42 43 43 43 44 45 45 46 46
Wind_Direction
238 238 237 238 237 237 237 238 238 238 239 239 239 240 242 242 241 241 241 242 243 244 245 246 245 246 247 247 247 249 250 251 252 253 255 258 259 261 261 262 263 264 264
238 238 237 237 237 237 237 237 238 237 239 239 240 241 241 242 243 242 242 242 243 244 244 245 245 244 245 246 248 249 250 250 251 253 255 256 257 258 260 261 261 263 264
236 236 237 237 236 236 236 236 237 238 239 240 241 242 242 241 242 242 242 243 243 243 244 244 244 244 244 245 247 249 249 250 251 253 254 255 257 258 258 258 260 261 262
238 236 236 237 236 236 236 236 237 238 239 240 241 241 242 242 243 244 244 244 244 244 245 245 244 244 244 246 247 248 250 249 251 254 254 255 256 257 257 258 258 259 261
240 239 237 237 236 237 236 236 237 238 239 240 240 241 241 241 242 243 244 245 245 245 245 246 246 246 246 246 246 247 248 250 252 253 254 253 254 256 257 258 258 260 261
240 240 238 236 236 237 236 236 237 238 240 240 241 241 242 242 242 243 244 245 246 245 245 245 246 247 246 245 246 246 248 250 252 253 253 253 254 256 257 258 259 260 261
241 242 240 237 238 237 236 237 238 239 240 241 241 242 243 243 242 243 244 244 244 244 244 244 245 245 245 245 246 248 249 251 252 253 253 254 254 255 257 258 258 259 259
243 242 242 241 241 239 238 238 239 240 240 240 241 242 243 243 243 244 244 244 244 245 245 245 246 245 245 246 247 248 250 251 251 252 253 254 254 255 257 258 258 258 260
244 244 244 243 242 240 240 241 241 241 241 242 242 242 243 243 243 243 245 245 245 245 246 247 248 248 248 249 250 251 251 252 252 252 253 254 254 255 257 259 259 259 260
248 247 246 244 242 240 242 243 243 243 242 243 242 244 245 245 244 244 246 246 246 247 248 248 247 248 249 250 251 251 250 252 252 251 252 253 254 255 257 258 260 260 261
252 250 248 247 245 242 243 243 244 244 243 244 243 245 246 247 247 247 246 247 247 247 248 248 247 247 248 249 250 251 250 251 251 251 251 251 254 256 257 258 260 261 261
256 252 249 248 247 245 245 245 245 245 245 245 246 247 247 248 248 248 249 248 248 248 247 248 248 248 249 249 249 250 250 251 251 251 251 251 253 256 257 258 260 261 262
258 254 252 250 248 247 246 246 247 246 246 247 248 248 249 249 249 249 249 249 248 247 247 248 248 248 248 249 249 249 250 251 251 251 251 252 253 254 256 258 260 261 261
261 258 256 254 251 249 248 248 247 247 248 248 249 249 249 249 249 250 249 249 249 248 248 248 249 248 248 248 249 248 249 250 251 251 252 253 254 255 257 258 260 261 261
265 262 258 255 253 251 250 249 249 249 249 249 249 250 250 250 250 249 249 250 250 250 249 249 249 249 248 249 249 249 250 251 252 253 254 254 255 256 257 258 260 261 261
267 265 261 257 255 254 252 251 251 251 252 251 251 250 250 250 250 249 250 250 250 250 251 251 250 251 251 251 251 251 251 252 254 254 254 255 255 256 257 258 259 261 262
271 267 264 261 258 257 255 254 253 252 252 252 251 252 252 250 249 249 250 251 252 252 252 253 252 253 252 252 252 252 253 254 254 254 255 255 255 256 257 258 259 260 261
273 269 266 263 261 259 258 256 255 254 253 252 251 252 252 250 250 250 250 250 252 252 252 253 253 253 253 253 253 253 254 255 255 255 255 255 256 257 257 257 258 258 260
276 272 270 267 263 261 259 258 257 256 254 254 253 252 250 249 250 250 251 251 252 252 252 252 253 253 252 252 252 253 254 255 256 256 256 256 256 256 256 256 257 258 260
278 276 274 271 268 265 261 258 258 257 256 255 254 252 250 249 250 251 251 251 252 252 252 252 252 251 252 252 252 253 253 254 255 255 255 255 255 256 255 256 257 258 259
280 279 277 275 270 267 264 261 259 258 257 256 255 252 251 250 250 250 250 250 251 251 251 252 252 252 253 252 253 253 254 254 255 255 256 255 255 256 256 257 258 259 259
282 281 278 276 272 267 265 264 262 259 258 257 255 253 251 251 250 250 250 251 252 252 253 253 252 253 253 253 253 254 254 255 255 256 257 257 256 256 257 259 260 260 260
284 282 279 277 273 270 268 266 265 262 260 258 257 254 252 252 251 252 252 253 254 255 255 255 254 253 253 254 254 254 254 255 256 257 258 258 258 258 259 260 261 261 261
285 282 280 278 273 272 270 268 265 264 263 260 257 255 254 253 253 253 253 253 254 255 255 255 254 254 254 255 255 255 255 256 257 258 258 258 259 259 259 260 261 261 261
288 285 283 280 275 272 270 268 267 265 264 262 258 257 256 255 254 254 254 255 255 256 256 255 255 255 256 256 256 255 256 257 257 258 258 258 258 259 259 259 260 261 261
288 287 285 282 279 275 272 270 268 266 265 264 261 258 257 256 255 255 255 255 254 254 255 256 256 257 257 257 257 256 256 256 257 258 259 259 259 260 259 259 259 260 262
Height
5671 5675 5680 5686 5691 5697 5702 5707 5712 5716 5720 5724 5728 5732 5736 5739 5743 5746 5749 5752 5756 5760 5764 5767 5770 5773 5776 5779 5782 5784 5787 5789 5791 5793 5795 5797 5798 5800 5801 5802 5803 5804 5805
5661 5664 5669 5675 5680 5686 5691 5697 5702 5706 5711 5715 5719 5723 5726 5730 5734 5737 5740 5743 5746 5750 5754 5758 5761 5764 5767 5770 5773 5775 5778 5781 5783 5785 5787 5789 5792 5792 5794 5795 5796 5797 5798
5650 5654 5659 5664 5670 5676 5681 5686 5691 5696 5701 5705 5708 5712 5716 5720 5724 5727 5730 5733 5736 5740 5744 5748 5751 5754 5757 5760 5763 5766 5769 5772 5774 5776 5779 5781 5783 5784 5786 5787 5789 5790 5791
5640 5644 5649 5654 5660 5666 5671 5675 5681 5685 5690 5694 5698 5702 5706 5710 5714 5717 5720 5723 5727 5730 5733 5737 5741 5744 5748 5751 5753 5756 5759 5762 5765 5767 5770 5772 5774 5776 5778 5780 5781 5782 5784
5631 5635 5640 5644 5650 5655 5660 5665 5670 5674 5678 5682 5687 5691 5695 5699 5703 5706 5710 5713 5716 5720 5723 5726 5730 5734 5738 5741 5744 5747 5750 5752 5755 5758 5760 5763 5765 5767 5769 5771 5773 5774 5775
5622 5626 5630 5635 5640 5644 5649 5654 5659 5664 5668 5672 5676 5681 5685 5689 5692 5696 5699 5703 5706 5710 5713 5716 5720 5723 5727 5731 5734 5737 5740 5743 5746 5749 5751 5754 5756 5758 5760 5762 5764 5765 5767
5613 5617 5621 5625 5630 5634 5639 5644 5648 5653 5657 5661 5666 5670 5674 5678 5682 5685 5689 5692 5695 5699 5703 5706 5710 5713 5716 5720 5723 5727 5730 5732 5735 5738 5741 5744 5746 5748 5750 5752 5754 5756 5758
5604 5608 5611 5616 5619 5624 5629 5634 5638 5642 5646 5651 5655 5659 5663 5667 5671 5674 5678 5681 5684 5688 5692 5695 5699 5702 5706 5709 5712 5716 5719 5722 5725 5728 5731 5733 5736 5738 5740 5742 5745 5747 5749
5596 5599 5602 5606 5610 5614 5619 5623 5627 5632 5636 5640 5644 5648 5652 5655 5659 5663 5666 5669 5673 5676 5680 5684 5688 5691 5694 5698 5701 5705 5707 5711 5713 5717 5720 5723 5725 5728 5730 5732 5734 5737 5739
5589 5591 5594 5597 5601 5605 5610 5613 5617 5621 5625 5629 5633 5637 5640 5643 5647 5651 5654 5658 5661 5664 5668 5672 5676 5679 5683 5686 5689 5693 5696 5699 5702 5705 5708 5711 5714 5717 5719 5721 5723 5725 5728
5582 5584 5586 5589 5592 5596 5600 5603 5607 5611 5614 5618 5621 5625 5628 5632 5635 5639 5643 5646 5649 5652 5656 5659 5663 5667 5671 5674 5677 5680 5684 5687 5690 5693 5696 5699 5702 5705 5707 5709 5711 5713 5716
5574 5576 5578 5581 5584 5588 5590 5593 5597 5600 5603 5607 5610 5613 5616 5620 5623 5626 5630 5633 5636 5640 5643 5646 5650 5654 5657 5661 5665 5668 5671 5675 5678 5681 5684 5687 5690 5693 5695 5698 5700 5702 5704
5566 5567 5569 5572 5575 5578 5581 5583 5586 5589 5592 5595 5598 5601 5604 5608 5611 5614 5617 5620 5624 5627 5630 5633 5637 5640 5644 5648 5652 5656 5659 5662 5666 5669 5672 5675 5678 5681 5683 5686 5688 5690 5692
5558 5559 5560 5562 5565 5567 5570 5573 5576 5578 5581 5584 5587 5589 5592 5595 5599 5602 5605 5608 5611 5614 5617 5620 5623 5627 5631 5635 5639 5643 5646 5649 5653 5656 5659 5662 5665 5668 5671 5673 5676 5678 5680
5550 5550 5552 5553 5555 5557 5559 5562 5564 5567 5569 5571 5574 5577 5579 5583 5586 5589 5592 5595 5598 5601 5604 5607 5611 5614 5618 5622 5625 5629 5633 5636 5639 5642 5645 5649 5652 5655 5658 5661 5663 5665 5667
5542 5542 5543 5544 5545 5547 5549 5551 5553 5556 5557 5560 5562 5564 5567 5570 5573 5576 5579 5582 5585 5588 5591 5594 5598 5601 5605 5608 5611 5615 5619 5622 5626 5629 5632 5635 5638 5641 5644 5647 5649 5652 5654
5535 5534 5534 5535 5535 5537 5539 5541 5542 5544 5546 5548 5550 5552 5554 5557 5560 5563 5566 5569 5572 5575 5578 5581 5585 5589 5592 5595 5598 5601 5605 5608 5612 5615 5618 5621 5624 5627 5630 5633 5635 5637 5639
5526 5526 5526 5526 5526 5526 5528 5529 5531 5533 5535 5536 5538 5540 5542 5545 5548 5551 5554 5557 5560 5563 5566 5569 5572 5575 5578 5581 5584 5587 5591 5594 5597 5601 5604 5607 5610 5612 5615 5618 5621 5623 5625
5518 5518 5517 5516 5516 5517 5518 5519 5521 5522 5523 5525 5527 5529 5531 5533 5536 5539 5542 5545 5547 5550 5553 5556 5558 5561 5565 5568 5571 5574 5577 5581 5584 5586 5589 5592 5595 5598 5601 5604 5607 5609 5611
5510 5509 5508 5507 5507 5507 5508 5509 5510 5512 5513 5514 5516 5518 5520 5522 5524 5527 5530 5532 5535 5538 5540 5543 5546 5548 5551 5554 5557 5560 5564 5568 5571 5573 5576 5578 5581 5583 5585 5588 5591 5594 5596
5503 5501 5500 5499 5498 5498 5498 5499 5500 5501 5502 5503 5505 5507 5508 5511 5513 5515 5518 5520 5523 5526 5528 5531 5534 5536 5539 5541 5544 5547 5551 5554 5557 5560 5562 5564 5567 5569 5571 5574 5576 5579 5581
5495 5494 5492 5491 5489 5489 5489 5490 5490 5491 5492 5493 5494 5496 5498 5500 5502 5504 5507 5509 5511 5514 5516 5518 5521 5523 5526 5528 5531 5534 5538 5541 5544 5547 5549 5551 5553 5555 5558 5560 5562 5564 5566
5488 5486 5485 5483 5482 5481 5481 5481 5481 5481 5482 5483 5484 5486 5487 5489 5491 5493 5496 5498 5500 5502 5504 5506 5509 5511 5513 5516 5518 5521 5524 5527 5531 5533 5536 5538 5540 5542 5544 5546 5548 5549 5551
5480 5478 5477 5476 5475 5474 5473 5473 5473 5473 5473 5474 5475 5476 5478 5479 5481 5483 5485 5487 5489 5491 5493 5495 5498 5500 5502 5504 5506 5509 5512 5515 5517 5520 5522 5525 5527 5529 5531 5532 5534 5536 5538
5473 5471 5469 5468 5467 5466 5466 5465 5465 5465 5465 5466 5466 5467 5468 5470 5471 5473 5475 5477 5479 5480 5483 5485 5486 5489 5491 5492 5494 5496 5500 5502 5505 5507 5509 5511 5514 5516 5518 5519 5521 5522 5524
5466 5464 5462 5461 5460 5459 5458 5458 5457 5457 5457 5458 5458 5458 5459 5460 5462 5463 5465 5466 5469 5471 5472 5474 5476 5478 5480 5481 5483 5485 5488 5490 5493 5495 5497 5499 5501 5503 5504 5506 5508 5509 5511